Weather History for Shreveport Downtown, LA

Change the Weather History Date:

Monday, November 12, 2012

  Actual Average (KSHV) Record (KSHV)
Temperature  
Mean Temperature 48 °F 58 °F  
Max Temperature 57 °F 69 °F 88 °F (1955)
Min Temperature 39 °F 46 °F 27 °F (1907)
Degree Days  
Heating Degree Days 17 8  
Month to date heating degree days 82  
Since 1 July heating degree days 168  
Cooling Degree Days 0 1  
Month to date cooling degree days 16  
Year to date cooling degree days 2465  
Moisture  
Dew Point 39 °F    
Average Humidity 75    
Maximum Humidity 100    
Minimum Humidity 30    
Precipitation  
Precipitation 0.02 in 0.16 in 2.34 in (1889)
Month to date precipitation 1.87  
Year to date precipitation 43.98  
Snow  
Snow 0.00 in - - ()
Month to date snowfall  
Since 1 July snowfall  
Since 1 September snowfall  
Snow Depth -    
Sea Level Pressure  
Sea Level Pressure 30.38 in    
Wind  
Wind Speed 7 mph (NNW)    
Max Wind Speed 12 mph    
Max Gust Speed 22 mph    
Visibility 10 miles    
Events Rain    
T = Trace of Precipitation, MM = Missing Value Source: NWS Daily Summary

Daily Weather History Graph

Daily Weather History Graph

Search for Another Location

Airport:

Trip Planner

Search our weather history database for the weather conditions in past years. The results will help you decide how hot, cold, wet, or windy it might be!

Date:

Astronomy

Nov. 12, 2012 Rise Set
Actual Time 6:42 AM CST 5:15 PM CST
Civil Twilight 6:16 AM CST 5:41 PM CST
Nautical Twilight 5:46 AM CST 6:11 PM CST
Astronomical Twilight 5:17 AM CST 6:40 PM CST
Moon 5:11 AM CST (11/12) 4:19 PM CST (11/12)
Length of Visible Light 11h 25m
Length of Day
10h 33m
Waning Crescent, 2% of the Moon is Illuminated
Nov 12
Waning Crescent
Nov 13
New
Nov 20
First Quarter
Nov 28
Full
Dec 6
Last Quarter

Hourly Weather History & Observations

Time (CST) Temp. Windchill Dew Point Humidity Pressure Visibility Wind Dir Wind Speed Gust Speed Precip Events Conditions
12:53 AM 54.0 °F - 53.1 °F 97% 30.18 in 10.0 mi NW 4.6 mph - 0.01 in Rain Light Rain
1:53 AM 54.0 °F - 53.1 °F 97% 30.21 in 10.0 mi NW 4.6 mph - 0.01 in   Overcast
2:05 AM 53.6 °F - 53.6 °F 100% 30.22 in 10.0 mi NW 5.8 mph - N/A   Overcast
2:32 AM 53.6 °F - 51.8 °F 94% 30.21 in 10.0 mi NW 8.1 mph - N/A   Overcast
2:53 AM 52.0 °F - 50.0 °F 93% 30.22 in 10.0 mi NW 10.4 mph - N/A   Overcast
3:30 AM 48.2 °F - 46.4 °F 93% 30.25 in 10.0 mi NW 11.5 mph - N/A   Overcast
3:53 AM 48.9 °F - 46.0 °F 90% 30.25 in 10.0 mi NNW 9.2 mph 17.3 mph N/A   Overcast
4:53 AM 48.0 °F - 44.1 °F 86% 30.29 in 10.0 mi NNW 10.4 mph 17.3 mph N/A   Overcast
5:10 AM 46.4 °F 41.1 °F 42.8 °F 87% 30.30 in 10.0 mi NNW 11.5 mph 21.9 mph N/A   Mostly Cloudy
5:37 AM 44.6 °F 38.8 °F 41.0 °F 87% 30.31 in 10.0 mi NNW 11.5 mph - N/A   Mostly Cloudy
5:53 AM 45.0 °F 39.7 °F 41.0 °F 86% 30.32 in 10.0 mi NNW 10.4 mph - N/A   Mostly Cloudy
6:53 AM 45.0 °F 39.7 °F 39.9 °F 82% 30.38 in 10.0 mi NNW 10.4 mph 17.3 mph N/A   Overcast
7:19 AM 42.8 °F 36.6 °F 37.4 °F 81% 30.39 in 10.0 mi NNW 11.5 mph 16.1 mph N/A   Scattered Clouds
7:53 AM 43.0 °F 37.2 °F 37.9 °F 82% 30.42 in 10.0 mi NNW 10.4 mph - N/A   Clear
8:28 AM 44.6 °F 40.7 °F 39.2 °F 81% 30.44 in 10.0 mi Variable 6.9 mph - N/A   Mostly Cloudy
8:41 AM 44.6 °F 39.2 °F 37.4 °F 76% 30.45 in 10.0 mi North 10.4 mph - N/A   Scattered Clouds
8:53 AM 45.0 °F 39.3 °F 37.9 °F 76% 30.46 in 10.0 mi North 11.5 mph - N/A   Partly Cloudy
9:53 AM 48.0 °F - 37.9 °F 68% 30.47 in 10.0 mi NNW 10.4 mph - N/A   Clear
10:53 AM 50.0 °F - 36.0 °F 59% 30.45 in 10.0 mi North 8.1 mph - N/A   Clear
11:53 AM 53.1 °F - 33.1 °F 47% 30.43 in 10.0 mi Variable 6.9 mph - N/A   Clear
12:53 PM 55.9 °F - 30.0 °F 37% 30.42 in 10.0 mi North 8.1 mph - N/A   Clear
1:53 PM 57.0 °F - 27.0 °F 32% 30.42 in 10.0 mi North 9.2 mph - N/A   Clear
2:53 PM 57.0 °F - 28.0 °F 33% 30.42 in 10.0 mi NNE 5.8 mph - N/A   Clear
3:53 PM 57.0 °F - 26.1 °F 30% 30.43 in 10.0 mi NNE 8.1 mph - N/A   Clear
4:53 PM 54.0 °F - 28.9 °F 38% 30.45 in 10.0 mi NNE 4.6 mph - N/A   Clear
5:53 PM 48.9 °F - 32.0 °F 52% 30.45 in 10.0 mi Calm Calm - N/A   Clear
6:53 PM 46.0 °F 44.8 °F 37.0 °F 71% 30.47 in 10.0 mi North 3.5 mph - N/A   Clear
7:53 PM 42.1 °F - 35.1 °F 76% 30.47 in 10.0 mi Calm Calm - N/A   Clear
8:53 PM 39.9 °F - 37.9 °F 93% 30.47 in 10.0 mi Calm Calm - N/A   Clear
9:53 PM 39.9 °F - 37.9 °F 93% 30.48 in 10.0 mi Calm Calm - N/A   Clear
10:53 PM 39.9 °F - 36.0 °F 86% 30.49 in 10.0 mi Calm Calm - N/A   Clear
11:53 PM 39.0 °F - 36.0 °F 89% 30.48 in 10.0 mi Calm Calm - N/A   Clear